EN

Hourly Weather Altensteig

Today, 19 January, Tuesday

Time Temperature Precipitation Wind Pressure Humidity
00:00 -4°C° 0 mm 2 mps 722 mmHg 92%
01:00 -5°C° 0 mm 2 mps 722 mmHg 92%
02:00 -5°C° 0 mm 2 mps 721 mmHg 92%
03:00 -5°C° 0 mm 2 mps 721 mmHg 92%
04:00 -5°C° 0 mm 2 mps 720 mmHg 92%
05:00 -4°C° 0 mm 2 mps 720 mmHg 92%
06:00 -5°C° 0 mm 3 mps 719 mmHg 91%
07:00 -5°C° 0 mm 3 mps 719 mmHg 91%
08:00 -4°C° 0 mm 3 mps 718 mmHg 88%
09:00 -2°C° 0 mm 3 mps 718 mmHg 85%
10:00 -2°C° 0 mm 4 mps 718 mmHg 82%
11:00 -1°C° 0 mm 4 mps 717 mmHg 83%
12:00 0°C° 0 mm 5 mps 717 mmHg 85%
13:00 0°C° 0 mm 5 mps 717 mmHg 86%
14:00 0°C° 0.2 mm 5 mps 716 mmHg 87%
15:00 +1°C° 0.2 mm 5 mps 716 mmHg 88%
16:00 +1°C° 0.2 mm 5 mps 716 mmHg 89%
17:00 0°C° 0 mm 5 mps 716 mmHg 85%
18:00 0°C° 0 mm 4 mps 716 mmHg 81%
19:00 0°C° 0 mm 4 mps 716 mmHg 77%
20:00 +1°C° 0 mm 3 mps 715 mmHg 77%
21:00 0°C° 0 mm 3 mps 715 mmHg 76%
22:00 0°C° 0 mm 3 mps 715 mmHg 76%
23:00 -1°C° 0 mm 3 mps 714 mmHg 75%

Tomorrow, 20 January, Wednesday

Time Temperature Precipitation Wind Pressure Humidity
00:00 -1°C° 0 mm 3 mps 714 mmHg 74%
01:00 -1°C° 0 mm 3 mps 714 mmHg 74%
02:00 -1°C° 0 mm 3 mps 714 mmHg 74%
03:00 0°C° 0 mm 3 mps 713 mmHg 74%
04:00 0°C° 0 mm 3 mps 713 mmHg 74%
05:00 0°C° 0 mm 3 mps 713 mmHg 74%
06:00 0°C° 0 mm 3 mps 712 mmHg 74%
07:00 0°C° 0 mm 3 mps 712 mmHg 74%
08:00 +1°C° 0 mm 3 mps 712 mmHg 76%
09:00 +1°C° 0 mm 3 mps 712 mmHg 77%
10:00 +2°C° 0 mm 3 mps 711 mmHg 79%
11:00 +2°C° 0 mm 3 mps 711 mmHg 80%
12:00 +3°C° 0 mm 3 mps 711 mmHg 81%
13:00 +3°C° 0 mm 3 mps 710 mmHg 82%
14:00 +3°C° 0 mm 3 mps 710 mmHg 81%
15:00 +3°C° 0 mm 3 mps 709 mmHg 80%
16:00 +3°C° 0 mm 3 mps 708 mmHg 79%
17:00 +2°C° 0 mm 3 mps 708 mmHg 78%
18:00 +2°C° 0 mm 2 mps 708 mmHg 77%
19:00 +2°C° 0 mm 2 mps 708 mmHg 76%
20:00 +1°C° 0 mm 2 mps 708 mmHg 76%
21:00 +1°C° 0 mm 2 mps 708 mmHg 76%
22:00 +1°C° 0 mm 2 mps 708 mmHg 76%
23:00 +1°C° 0 mm 2 mps 707 mmHg 77%

Day after tomorrow, 21 January, Thursday

Time Temperature Precipitation Wind Pressure Humidity
00:00 +1°C° 0 mm 2 mps 707 mmHg 77%
01:00 +1°C° 0 mm 2 mps 707 mmHg 77%
02:00 0°C° 0 mm 3 mps 707 mmHg 77%
03:00 0°C° 0 mm 3 mps 706 mmHg 77%
04:00 0°C° 0 mm 3 mps 706 mmHg 76%
05:00 +1°C° 0 mm 3 mps 706 mmHg 75%
06:00 +1°C° 0 mm 3 mps 706 mmHg 75%
07:00 0°C° 0 mm 4 mps 706 mmHg 74%
08:00 +1°C° 0 mm 4 mps 706 mmHg 74%
09:00 +2°C° 0 mm 5 mps 705 mmHg 75%
10:00 +2°C° 0 mm 6 mps 705 mmHg 75%
11:00 +3°C° 0 mm 6 mps 705 mmHg 78%
12:00 +3°C° 0 mm 6 mps 705 mmHg 80%
13:00 +4°C° 0 mm 6 mps 705 mmHg 83%
14:00 +5°C° 0.2 mm 5 mps 705 mmHg 86%
15:00 +3°C° 0.2 mm 5 mps 705 mmHg 89%
16:00 +3°C° 0.2 mm 5 mps 704 mmHg 92%
17:00 +3°C° 0.1 mm 5 mps 704 mmHg 91%
18:00 +3°C° 0.1 mm 5 mps 704 mmHg 91%
19:00 +3°C° 0.1 mm 5 mps 704 mmHg 90%
20:00 +4°C° 0.1 mm 4 mps 703 mmHg 89%
21:00 +4°C° 0.1 mm 4 mps 702 mmHg 88%
22:00 +4°C° 0.1 mm 4 mps 702 mmHg 88%
23:00 +3°C° 0.6 mm 3 mps 701 mmHg 89%

22 January, Friday

Time Temperature Precipitation Wind Pressure Humidity
00:00 +3°C° 0.6 mm 3 mps 701 mmHg 90%
01:00 +4°C° 0.6 mm 2 mps 701 mmHg 92%
02:00 +3°C° 0.4 mm 3 mps 701 mmHg 91%
03:00 +3°C° 0.4 mm 3 mps 701 mmHg 91%
04:00 +3°C° 0.4 mm 4 mps 700 mmHg 90%
05:00 +3°C° 0.2 mm 4 mps 701 mmHg 91%
06:00 +2°C° 0.2 mm 5 mps 701 mmHg 92%
07:00 +2°C° 0.2 mm 5 mps 701 mmHg 93%
08:00 +1°C° 0.5 mm 5 mps 702 mmHg 93%
09:00 0°C° 0.5 mm 5 mps 703 mmHg 93%
10:00 -1°C° 0.5 mm 5 mps 704 mmHg 93%
11:00 0°C° 0.1 mm 5 mps 705 mmHg 91%
12:00 0°C° 0.1 mm 5 mps 706 mmHg 88%
13:00 0°C° 0.1 mm 5 mps 706 mmHg 86%
14:00 0°C° 0.1 mm 4 mps 707 mmHg 85%
15:00 0°C° 0.1 mm 4 mps 707 mmHg 85%
16:00 0°C° 0.1 mm 4 mps 707 mmHg 85%
17:00 0°C° 0 mm 4 mps 707 mmHg 86%
18:00 0°C° 0 mm 3 mps 708 mmHg 88%
19:00 -1°C° 0 mm 3 mps 708 mmHg 89%
20:00 -1°C° 0 mm 3 mps 708 mmHg 90%
21:00 -1°C° 0 mm 3 mps 709 mmHg 90%
22:00 -1°C° 0 mm 3 mps 709 mmHg 91%
23:00 -1°C° 0 mm 3 mps 709 mmHg 90%

23 January, Saturday

Time Temperature Precipitation Wind Pressure Humidity
00:00 -1°C° 0 mm 3 mps 709 mmHg 90%
01:00 -1°C° 0 mm 3 mps 709 mmHg 90%
02:00 -1°C° 0 mm 3 mps 708 mmHg 90%
03:00 -1°C° 0 mm 3 mps 708 mmHg 89%
04:00 -1°C° 0 mm 3 mps 708 mmHg 89%
05:00 -1°C° 0.1 mm 3 mps 708 mmHg 90%
06:00 -1°C° 0.1 mm 3 mps 708 mmHg 92%
07:00 -1°C° 0.1 mm 3 mps 707 mmHg 93%
08:00 0°C° 0 mm 3 mps 707 mmHg 91%
09:00 0°C° 0 mm 3 mps 706 mmHg 88%
10:00 0°C° 0 mm 3 mps 706 mmHg 85%
11:00 0°C° 0 mm 4 mps 705 mmHg 81%
12:00 +1°C° 0 mm 4 mps 704 mmHg 76%
13:00 +1°C° 0 mm 4 mps 702 mmHg 72%
14:00 +1°C° 0.3 mm 5 mps 702 mmHg 77%
15:00 +1°C° 0.3 mm 6 mps 701 mmHg 83%
16:00 -1°C° 0.3 mm 7 mps 701 mmHg 88%
17:00 -1°C° 0.6 mm 7 mps 701 mmHg 85%
18:00 -1°C° 0.6 mm 8 mps 702 mmHg 82%
19:00 -2°C° 0.6 mm 8 mps 702 mmHg 79%
20:00 -2°C° 0 mm 8 mps 702 mmHg 81%
21:00 -3°C° 0 mm 7 mps 703 mmHg 83%
22:00 -3°C° 0 mm 6 mps 703 mmHg 84%
23:00 -3°C° 0 mm 6 mps 703 mmHg 85%

24 January, Sunday

Time Temperature Precipitation Wind Pressure Humidity
00:00 -3°C° 0 mm 6 mps 703 mmHg 86%
01:00 -4°C° 0 mm 5 mps 703 mmHg 87%
02:00 -4°C° 0 mm 5 mps 703 mmHg 87%
03:00 -4°C° 0 mm 5 mps 704 mmHg 87%
04:00 -5°C° 0 mm 5 mps 704 mmHg 88%
05:00 -4°C° 0.1 mm 4 mps 704 mmHg 88%
06:00 -4°C° 0.1 mm 4 mps 705 mmHg 89%
07:00 -4°C° 0.1 mm 4 mps 706 mmHg 89%
08:00 -4°C° 0.1 mm 4 mps 706 mmHg 89%
09:00 -3°C° 0.1 mm 4 mps 707 mmHg 89%
10:00 -3°C° 0.1 mm 4 mps 707 mmHg 88%
11:00 -3°C° 0.1 mm 4 mps 707 mmHg 86%
12:00 -2°C° 0.1 mm 4 mps 708 mmHg 84%
13:00 -1°C° 0.1 mm 3 mps 708 mmHg 82%
14:00 -1°C° 0 mm 3 mps 708 mmHg 83%
15:00 -1°C° 0 mm 2 mps 709 mmHg 84%
16:00 -1°C° 0 mm 2 mps 709 mmHg 84%
17:00 -2°C° 0 mm 2 mps 709 mmHg 85%
18:00 -2°C° 0 mm 2 mps 709 mmHg 87%
19:00 -3°C° 0 mm 2 mps 709 mmHg 88%
20:00 -2°C° 0 mm 3 mps 709 mmHg 87%
21:00 -3°C° 0 mm 4 mps 709 mmHg 86%
22:00 -4°C° 0 mm 5 mps 709 mmHg 85%
23:00 -4°C° 0.5 mm 5 mps 708 mmHg 88%
Show more